[[{"header":{"parameterUnit":"m.s-1","parameterCategory":1,"la1":30.2991,"la2":30.254,"lo1":-89.0895,"lo2":-89.0444,"dy":0.0017,"dx":0.0017,"nx":28,"ny":28,"refTime":"2024-05-01T21:00:00:Z","depth":0,"parameterNumber":2,"parameterNumberName":"U-component_of_WINDS"},"data":[0,0,0,0,0,0,0,0,0,0,0,0,0,0,0,0,0,0,0,0,0,0,0,0,0,0,0,0,0,0,0,0,0,0,0,0,0,0,0,0,0,0,0,0,0,0,0,0,0,0,0,0,0,0,0,0,0,0,1.0622,1.0619,0,1.0375,1.0372,1.0369,1.0183,1.0181,1.018,1.0178,0.9926,0.9921,0.9916,0,0,0,0,0,0,0,0,0,0,0,0,0,1.0933,1.0929,1.0622,1.0619,1.0616,1.0375,1.0372,1.0368,1.0183,1.0181,1.0179,1.0177,0.9927,0.9921,0.9915,0,0,0,0,0,0,0,0,0,0,0,0,0,1.0754,1.0927,1.0623,1.0495,1.0481,1.0376,1.0371,1.0367,1.0184,1.0181,1.0179,1.0176,0.993,0.9922,0.9914,0.9917,0,0,0.9891,0.9887,0,0,0,0,0,0,0,0,1.0764,1.0742,1.0517,1.0503,1.0487,1.0307,1.0388,1.0216,1.0184,1.0297,1.0178,1.0175,1.0055,1.0037,0.9996,0.9905,0.9895,0.989,0.9885,0.9882,0.988,0,0,0,0,0,0,0,1.0777,1.0752,1.0524,1.0514,1.0496,1.0449,1.0421,1.0355,1.0193,1.0287,1.0272,1.0246,1.0046,1.0004,0.9988,0.9891,0.989,0.9883,0.9879,0.9876,0.9786,0.9788,0,0,0,0,0,0,1.0809,1.0764,1.0532,1.0517,1.0622,1.0446,1.0414,1.0368,1.0193,1.0164,1.0248,1.0238,1.0018,0.9998,0.9979,0.9968,0.9882,0.9875,0.9871,0.9784,0.9787,0.9789,0,0,0,0,0,0,1.0816,1.079,1.0542,1.0636,1.0601,1.0443,1.0392,1.0364,1.0321,1.0164,1.0134,1.0234,1.0015,0.999,0.9933,0.9957,0.9871,0.9864,0.9781,0.9785,0.9788,0.9949,0,0,0,0,0,0,1.0826,1.0794,1.0794,1.0637,1.0597,1.0502,1.0394,1.0361,1.0308,1.0292,1.0143,1.0116,1.0011,0.9945,0.9925,0.9945,0.9858,0.9778,0.9783,0.9787,0.9941,0.9958,0.9972,0,0,0,0,0,1.0838,1.0851,1.0795,1.0768,1.0594,1.0503,1.048,1.0359,1.0311,1.0309,1.0207,1.0121,0.9958,0.9941,0.9917,0.9935,0.9776,0.9782,0.9786,0.9934,0.9954,0.9971,0,0,0,0,0,0,1.1016,1.0828,1.0764,1.0727,1.0632,1.0472,1.0466,1.0385,1.0302,1.0291,1.0145,1.0112,1.0071,0.9996,0.9982,0.9926,0.9856,0.9856,0.9976,0.9994,1.0009,1.0028,0.9852,0,0,0,0,0,1.105,1.0993,1.0832,1.0814,1.0769,1.0627,1.0583,1.0497,1.0394,1.0353,1.0247,1.015,1.0076,1.0031,0.9955,0.9929,0.9892,0.9928,0.9944,0.9957,0.996,0.9937,0.9951,0.9806,0.9806,0.9806,0,0,1.1122,1.1012,1.0985,1.0847,1.0763,1.0706,1.0594,1.054,1.0495,1.0345,1.0284,1.0203,1.0084,1.0043,1.0019,0.9979,0.9991,0.9964,0.9976,0.997,0.9944,0.9958,0.997,0.9809,0.9808,0.9808,0,0,1.1222,1.1134,1.1108,1.1026,1.0901,1.0805,1.0799,1.065,1.059,1.0526,1.0411,1.0356,1.0233,1.0152,1.0095,1.0161,1.0078,1.0141,1.0221,1.0201,1.0213,1.0222,1.0244,1.0254,1.0143,1.0144,1.0144,0,1.1327,1.1237,1.1106,1.1056,1.0998,1.0857,1.0829,1.0756,1.0613,1.0575,1.0533,1.0373,1.0283,1.0219,1.0235,1.0194,1.0181,1.0157,1.0222,1.023,1.0237,1.0256,1.0264,1.0152,1.0151,1.015,1.0149,0,1.137,1.1309,1.1303,1.1166,1.1107,1.1069,1.0931,1.0887,1.0806,1.0714,1.065,1.0537,1.0434,1.0412,1.0333,1.0335,1.0314,1.0249,1.0176,1.0261,1.0276,1.0283,1.0164,1.0161,1.0158,1.0156,0,0,1.1579,1.1367,1.1367,1.1302,1.1151,1.1101,1.1055,1.0953,1.0917,1.0822,1.0779,1.0676,1.0613,1.0549,1.0459,1.0442,1.0498,1.0377,1.0372,1.0403,1.0491,1.0541,1.0552,1.0441,1.0442,1.0443,1.05,0,1.1655,1.1564,1.1444,1.1394,1.1334,1.1198,1.1157,1.106,1.0973,1.0909,1.0811,1.074,1.0664,1.0623,1.06,1.0497,1.0514,1.0491,1.0399,1.0397,1.0433,1.056,1.0613,1.0673,1.0506,1.0507,1.0507,0,1.1732,1.1643,1.1587,1.1438,1.1408,1.1374,1.1269,1.121,1.1096,1.1033,1.096,1.0862,1.0804,1.0739,1.0657,1.0644,1.0599,1.0542,1.0541,1.0528,1.0458,1.0549,1.0689,1.0698,1.0516,1.0515,1.0515,0,1.1888,1.1753,1.1701,1.165,1.1475,1.1454,1.1381,1.1264,1.1209,1.1117,1.1079,1.0983,1.093,1.0857,1.0735,1.0698,1.0665,1.059,1.0611,1.0614,1.061,1.0612,1.0744,1.0583,1.0583,1.0583,1.0583,0,1.1985,1.1956,1.1768,1.1737,1.1699,1.1559,1.1525,1.1439,1.1336,1.1284,1.116,1.1114,1.0956,1.0891,1.0795,1.0741,1.0718,1.0665,1.0639,1.0675,1.0682,1.0644,1.0636,1.0585,1.0584,1.0584,1.0584,0,1.2153,1.2026,1.196,1.1799,1.1758,1.1737,1.1599,1.1562,1.1466,1.1402,1.1378,1.1228,1.1144,1.1015,1.0894,1.0829,1.079,1.0749,1.0829,1.0813,1.0841,1.084,1.0953,1.0959,1.0796,1.0798,1.0799,0,1.2224,1.2197,1.2033,1.1989,1.1919,1.185,1.1792,1.1653,1.1598,1.1464,1.1443,1.135,1.1268,1.114,1.102,1.0925,1.088,1.0926,1.0865,1.0901,1.0879,1.0882,1.0877,1.0941,1.0943,1.0945,1.0947,0,1.2362,1.2299,1.2221,1.212,1.2055,1.1969,1.1877,1.1848,1.1688,1.1633,1.1545,1.1481,1.1355,1.1264,1.1152,1.1075,1.0984,1.0967,1.0966,1.1002,1.1049,1.1022,1.0867,1.0965,1.0963,1.0962,1.0961,1.096,1.2481,1.245,1.2329,1.2245,1.2161,1.2077,1.2033,1.1931,1.1855,1.1742,1.1663,1.158,1.1463,1.1303,1.123,1.1162,1.1123,1.1123,1.1123,1.1125,1.1137,1.106,1.1142,1.1141,1.114,1.114,1.1139,0,1.2611,1.2526,1.245,1.2324,1.2258,1.2177,1.207,1.202,1.1947,1.1846,1.1766,1.1664,1.1574,1.1445,1.1344,1.1314,1.127,1.1292,1.1293,1.1276,1.1179,1.1189,1.133,1.133,1.133,1.133,1.133,1.133,1.2671,1.2614,1.2537,1.2436,1.2349,1.2266,1.2212,1.2133,1.205,1.1942,1.1865,1.1781,1.1668,1.1557,1.147,1.1434,1.1402,1.1437,1.1389,1.1301,1.1283,1.1267,1.1275,1.1432,1.1432,1.1491,1.1492,1.1492]},{"header":{"parameterUnit":"m.s-1","parameterCategory":1,"la1":30.2991,"la2":30.254,"lo1":-89.0895,"lo2":-89.0444,"dy":0.0017,"dx":0.0017,"nx":28,"ny":28,"refTime":"2024-05-01T21:00:00:Z","depth":0,"parameterNumber":3,"parameterNumberName":"V-component_of_WINDS"},"data":[0,0,0,0,0,0,0,0,0,0,0,0,0,0,0,0,0,0,0,0,0,0,0,0,0,0,0,0,0,0,0,0,0,0,0,0,0,0,0,0,0,0,0,0,0,0,0,0,0,0,0,0,0,0,0,0,0,0,4.3162,4.3162,0,4.3209,4.3209,4.321,4.3202,4.3202,4.3201,4.32,4.3243,4.3245,4.3247,0,0,0,0,0,0,0,0,0,0,0,0,0,4.306,4.3062,4.3162,4.3162,4.3163,4.3209,4.3209,4.321,4.3202,4.3201,4.3201,4.32,4.3242,4.3245,4.3247,0,0,0,0,0,0,0,0,0,0,0,0,0,4.3105,4.3063,4.3161,4.3165,4.3166,4.3208,4.3209,4.321,4.3203,4.3201,4.32,4.3199,4.3242,4.3244,4.3247,4.3288,0,0,4.3256,4.3257,0,0,0,0,0,0,0,0,4.3103,4.3109,4.3164,4.3165,4.3166,4.3199,4.3189,4.3236,4.3203,4.3188,4.32,4.3199,4.3229,4.3233,4.3244,4.329,4.3292,4.3256,4.3258,4.3259,4.326,0,0,0,0,0,0,0,4.31,4.3107,4.318,4.3164,4.3166,4.3162,4.3167,4.3198,4.3214,4.319,4.3189,4.3195,4.3229,4.3241,4.3245,4.3293,4.3256,4.3259,4.326,4.3261,4.3375,4.3376,0,0,0,0,0,0,4.3096,4.3104,4.3179,4.3181,4.3131,4.3165,4.3171,4.3189,4.3214,4.3217,4.3196,4.3195,4.3237,4.3242,4.3246,4.3296,4.3259,4.3262,4.3263,4.3373,4.3375,4.3376,0,0,0,0,0,0,4.3094,4.3103,4.3177,4.3143,4.3152,4.3168,4.3189,4.3191,4.3203,4.3219,4.3222,4.3206,4.3236,4.3242,4.3278,4.3297,4.3263,4.3266,4.3372,4.3374,4.3376,4.3395,0,0,0,0,0,0,4.3091,4.3102,4.3119,4.3143,4.3154,4.3209,4.319,4.3192,4.3208,4.3207,4.3229,4.3231,4.3236,4.3274,4.3281,4.33,4.3268,4.337,4.3373,4.3375,4.3393,4.3398,4.3402,0,0,0,0,0,4.3088,4.3122,4.312,4.3129,4.3176,4.321,4.3216,4.3222,4.321,4.3226,4.3237,4.3231,4.3294,4.3278,4.3286,4.3306,4.3369,4.3372,4.3375,4.3391,4.3397,4.3401,0,0,0,0,0,0,4.3097,4.3125,4.3124,4.3167,4.3187,4.3209,4.323,4.3228,4.325,4.3248,4.3252,4.3257,4.3294,4.3303,4.3285,4.3347,4.333,4.3334,4.3339,4.3345,4.3349,4.3345,4.327,0,0,0,0,0,4.3105,4.3133,4.3155,4.319,4.3201,4.3214,4.3229,4.3232,4.3252,4.326,4.3273,4.3291,4.3315,4.333,4.3353,4.3395,4.3399,4.3412,4.3417,4.342,4.3424,4.3446,4.3452,4.3386,4.3386,4.3386,0,0,4.312,4.3139,4.3155,4.3193,4.3209,4.3235,4.3221,4.325,4.3269,4.3263,4.3298,4.3309,4.3329,4.3368,4.3385,4.3377,4.3443,4.3424,4.3427,4.3428,4.3449,4.3455,4.3461,4.3388,4.3388,4.3388,0,0,4.3161,4.3179,4.3211,4.3227,4.3252,4.326,4.3268,4.3291,4.3298,4.3334,4.333,4.3352,4.3394,4.3409,4.3421,4.3469,4.3464,4.3476,4.3498,4.3519,4.3524,4.3529,4.3545,4.3551,4.348,4.348,4.348,0,4.3176,4.3219,4.3226,4.3257,4.3272,4.3271,4.3302,4.3317,4.3347,4.3357,4.3348,4.34,4.3414,4.3455,4.3467,4.3478,4.3486,4.3473,4.3523,4.3528,4.3532,4.3548,4.3554,4.3481,4.3481,4.3481,4.3481,0,4.3236,4.3265,4.3287,4.3318,4.3337,4.3367,4.3378,4.3396,4.3397,4.3406,4.3442,4.3459,4.3485,4.3495,4.3496,4.3537,4.3531,4.3523,4.3505,4.354,4.3554,4.356,4.3483,4.3482,4.3482,4.3482,0,0,4.3283,4.3319,4.3327,4.3341,4.3369,4.339,4.342,4.3448,4.3462,4.3483,4.3507,4.3543,4.3535,4.355,4.3552,4.3571,4.3607,4.3561,4.3561,4.3568,4.3652,4.3657,4.3664,4.3604,4.3605,4.3606,4.365,0,4.3326,4.3381,4.3389,4.3437,4.3463,4.3462,4.3487,4.3506,4.3515,4.3538,4.3547,4.3572,4.3561,4.357,4.3589,4.3599,4.3623,4.3596,4.3625,4.3626,4.3619,4.3672,4.3677,4.3718,4.3655,4.3656,4.3657,0,4.3384,4.3409,4.3459,4.3483,4.3494,4.3518,4.3543,4.3565,4.3586,4.3591,4.3608,4.3608,4.3637,4.362,4.3659,4.364,4.3653,4.3659,4.3661,4.3663,4.3643,4.3674,4.3731,4.3736,4.3666,4.3665,4.3665,0,4.3413,4.3458,4.3494,4.3506,4.3535,4.3552,4.3564,4.3584,4.36,4.3621,4.3632,4.3656,4.3669,4.3687,4.3694,4.368,4.3732,4.3715,4.3736,4.3736,4.3746,4.3745,4.3805,4.3756,4.3756,4.3756,4.3756,0,4.346,4.349,4.3508,4.353,4.3564,4.3572,4.3605,4.3617,4.3634,4.3657,4.3657,4.3678,4.3686,4.3708,4.3713,4.3745,4.3751,4.3755,4.3755,4.3754,4.3754,4.3762,4.3759,4.3757,4.3757,4.3757,4.3757,0,4.3497,4.351,4.355,4.3574,4.3581,4.3605,4.3625,4.3646,4.3655,4.3684,4.3691,4.3706,4.3732,4.374,4.3771,4.3775,4.3811,4.381,4.3805,4.3804,4.3825,4.3822,4.389,4.3899,4.3846,4.3846,4.3846,0,4.3526,4.355,4.3578,4.3594,4.3608,4.3634,4.3651,4.366,4.3677,4.3702,4.3719,4.3746,4.3767,4.3809,4.3821,4.3844,4.3843,4.3865,4.3846,4.3844,4.3842,4.384,4.3842,4.3868,4.3869,4.3869,4.387,0,4.3575,4.3581,4.3606,4.3634,4.3654,4.3676,4.3696,4.3709,4.3721,4.374,4.3768,4.3785,4.3817,4.3843,4.3867,4.3878,4.3875,4.3876,4.3882,4.388,4.3876,4.3878,4.3813,4.3874,4.3873,4.3873,4.3873,4.3873,4.3609,4.363,4.3653,4.3681,4.3698,4.3717,4.3738,4.3751,4.3775,4.3803,4.3806,4.3836,4.3855,4.3888,4.39,4.3922,4.3915,4.3924,4.3926,4.3928,4.3929,4.3873,4.3926,4.3926,4.3926,4.3926,4.3926,0,4.3657,4.3672,4.3698,4.3728,4.375,4.3748,4.3771,4.3788,4.3815,4.3834,4.3856,4.3887,4.3912,4.3927,4.3951,4.3966,4.3965,4.3972,4.397,4.3973,4.3934,4.3926,4.3972,4.3972,4.3972,4.3972,4.3972,4.3972,4.3685,4.372,4.3729,4.3772,4.3787,4.3817,4.383,4.3848,4.3863,4.3899,4.392,4.393,4.3947,4.3973,4.3995,4.3999,4.4007,4.4014,4.4017,4.398,4.3975,4.3971,4.3963,4.4016,4.4016,4.4054,4.4054,4.4054]}]]